QPF
0.00 0.00 0.00 0.00 0.00 0.00 0.00 0.00 0.00 0.00 0.00 0.00 0.00 0.00 0.00 0.00 0.00 0.00 0.00 0.00 0.00 0.00 0.01 0.01 0.00 0.00 0.01 0.01 0.02 0.03 0.03 0.05 0.09 0.10 0.08 0.08 0.07 0.07 0.07 0.06 0.06 0.07 0.08 0.09
0.00 0.00 0.00 0.00 0.00 0.00 0.00 0.00 0.00 0.00 0.00 0.00 0.00 0.00 0.00 0.00 0.00 0.00 0.00 0.00 0.00 0.00 0.00 0.01 0.01 0.03 0.05 0.03 0.03 0.03 0.03 0.04 0.07 0.13 0.12 0.10 0.07 0.06 0.05 0.05 0.08 0.08 0.08 0.07
0.00 0.00 0.00 0.00 0.00 0.00 0.00 0.00 0.00 0.01 0.01 0.00 0.00 0.01 0.00 0.00 0.00 0.00 0.00 0.00 0.00 0.00 0.00 0.01 0.02 0.04 0.08 0.05 0.04 0.03 0.03 0.03 0.04 0.10 0.14 0.10 0.08 0.06 0.05 0.05 0.06 0.06 0.07 0.07
0.00 0.00 0.00 0.00 0.00 0.00 0.00 0.00 0.00 0.01 0.00 0.00 0.00 0.02 0.03 0.02 0.02 0.00 0.00 0.00 0.00 0.00 0.00 0.00 0.01 0.01 0.02 0.02 0.02 0.03 0.03 0.03 0.03 0.05 0.13 0.15 0.11 0.09 0.07 0.05 0.04 0.04 0.05 0.06
0.00 0.00 0.00 0.00 0.00 0.00 0.00 0.00 0.00 0.00 0.00 0.00 0.00 0.00 0.01 0.03 0.03 0.02 0.01 0.00 0.00 0.00 0.00 0.00 0.00 0.00 0.00 0.00 0.00 0.01 0.02 0.02 0.02 0.03 0.05 0.13 0.17 0.14 0.09 0.07 0.08 0.06 0.06 0.07
0.00 0.00 0.00 0.00 0.00 0.00 0.00 0.00 0.00 0.00 0.00 0.00 0.00 0.00 0.01 0.03 0.04 0.05 0.05 0.01 0.00 0.00 0.00 0.00 0.00 0.00 0.00 0.00 0.00 0.00 0.01 0.01 0.01 0.01 0.02 0.04 0.09 0.14 0.11 0.09 0.09 0.07 0.07 0.09
0.00 0.00 0.00 0.00 0.00 0.00 0.00 0.00 0.00 0.00 0.01 0.01 0.01 0.01 0.02 0.05 0.05 0.04 0.02 0.01 0.00 0.00 0.00 0.00 0.00 0.00 0.00 0.00 0.00 0.00 0.00 0.01 0.01 0.01 0.02 0.03 0.05 0.08 0.11 0.10 0.09 0.09 0.08 0.09
0.00 0.00 0.00 0.00 0.00 0.00 0.00 0.00 0.00 0.00 0.00 0.01 0.02 0.03 0.03 0.04 0.03 0.02 0.03 0.01 0.00 0.01 0.00 0.00 0.00 0.00 0.00 0.00 0.00 0.00 0.01 0.01 0.01 0.01 0.02 0.02 0.03 0.05 0.07 0.10 0.11 0.11 0.09 0.08
0.00 0.00 0.00 0.00 0.00 0.00 0.00 0.00 0.00 0.00 0.00 0.00 0.01 0.02 0.02 0.01 0.00 0.00 0.01 0.01 0.01 0.01 0.00 0.00 0.01 0.01 0.00 0.00 0.00 0.01 0.02 0.01 0.01 0.02 0.02 0.02 0.02 0.03 0.04 0.05 0.06 0.07 0.09 0.09
0.00 0.00 0.00 0.00 0.00 0.00 0.00 0.00 0.00 0.00 0.00 0.00 0.01 0.01 0.05 0.04 0.01 0.00 0.00 0.01 0.02 0.01 0.02 0.02 0.02 0.01 0.00 0.00 0.00 0.00 0.01 0.01 0.01 0.01 0.01 0.01 0.02 0.03 0.03 0.03 0.04 0.04 0.04 0.07
0.00 0.00 0.00 0.00 0.00 0.00 0.00 0.00 0.00 0.00 0.00 0.00 0.01 0.02 0.07 0.07 0.03 0.01 0.01 0.03 0.02 0.02 0.02 0.02 0.03 0.01 0.01 0.00 0.00 0.01 0.01 0.01 0.01 0.01 0.01 0.01 0.01 0.02 0.03 0.03 0.03 0.04 0.04 0.06
0.00 0.00 0.00 0.00 0.00 0.00 0.00 0.00 0.00 0.00 0.00 0.00 0.00 0.02 0.02 0.01 0.01 0.01 0.01 0.01 0.01 0.02 0.02 0.02 0.02 0.02 0.00 0.00 0.00 0.00 0.00 0.00 0.00 0.01 0.01 0.01 0.02 0.02 0.02 0.03 0.03 0.04 0.04 0.05
0.00 0.00 0.00 0.00 0.00 0.00 0.00 0.00 0.00 0.00 0.00 0.00 0.00 0.02 0.01 0.00 0.00 0.00 0.00 0.01 0.01 0.02 0.02 0.02 0.01 0.01 0.00 0.00 0.00 0.00 0.01 0.01 0.00 0.00 0.01 0.01 0.01 0.02 0.02 0.03 0.04 0.04 0.04 0.04
0.00 0.00 0.00 0.00 0.00 0.00 0.00 0.00 0.00 0.00 0.00 0.00 0.01 0.04 0.03 0.01 0.01 0.01 0.01 0.01 0.01 0.02 0.02 0.02 0.01 0.00 0.00 0.00 0.01 0.01 0.01 0.01 0.01 0.01 0.01 0.02 0.02 0.02 0.03 0.03 0.04 0.03 0.03 0.03
0.00 0.00 0.00 0.00 0.00 0.00 0.00 0.00 0.00 0.00 0.00 0.00 0.01 0.02 0.01 0.01 0.01 0.01 0.01 0.01 0.01 0.01 0.01 0.01 0.01 0.01 0.01 0.01 0.01 0.01 0.02 0.01 0.01 0.01 0.02 0.04 0.05 0.06 0.06 0.06 0.04 0.04 0.03 0.03
0.00 0.00 0.00 0.00 0.00 0.00 0.00 0.00 0.00 0.00 0.00 0.00 0.00 0.01 0.01 0.01 0.01 0.01 0.01 0.01 0.01 0.01 0.00 0.00 0.00 0.01 0.02 0.03 0.03 0.02 0.02 0.02 0.02 0.03 0.04 0.04 0.07 0.08 0.09 0.09 0.08 0.06 0.05 0.05
0.00 0.00 0.00 0.00 0.00 0.00 0.00 0.00 0.00 0.00 0.00 0.00 0.00 0.00 0.01 0.01 0.01 0.01 0.01 0.00 0.01 0.02 0.01 0.00 0.00 0.01 0.02 0.03 0.05 0.06 0.04 0.04 0.04 0.04 0.04 0.04 0.06 0.08 0.10 0.09 0.09 0.09 0.08 0.07
0.00 0.00 0.01 0.00 0.00 0.00 0.01 0.01 0.00 0.00 0.00 0.00 0.00 0.00 0.01 0.01 0.01 0.01 0.01 0.01 0.01 0.01 0.01 0.01 0.01 0.01 0.01 0.02 0.04 0.08 0.09 0.07 0.06 0.05 0.05 0.05 0.04 0.04 0.05 0.06 0.06 0.08 0.10 0.10
0.00 0.00 0.01 0.01 0.00 0.01 0.02 0.01 0.01 0.01 0.02 0.01 0.00 0.01 0.01 0.01 0.01 0.01 0.01 0.01 0.01 0.01 0.01 0.01 0.01 0.01 0.01 0.02 0.03 0.06 0.12 0.09 0.06 0.06 0.07 0.06 0.04 0.03 0.03 0.03 0.03 0.04 0.07 0.10
0.00 0.01 0.01 0.00 0.01 0.01 0.02 0.01 0.00 0.02 0.06 0.02 0.00 0.01 0.01 0.01 0.02 0.02 0.01 0.01 0.01 0.01 0.01 0.01 0.01 0.01 0.01 0.01 0.02 0.03 0.04 0.05 0.05 0.06 0.06 0.06 0.04 0.03 0.02 0.02 0.03 0.05 0.07 0.08
0.01 0.01 0.01 0.01 0.01 0.01 0.01 0.00 0.01 0.02 0.04 0.02 0.01 0.01 0.01 0.02 0.02 0.02 0.01 0.01 0.01 0.01 0.01 0.01 0.00 0.01 0.01 0.01 0.01 0.02 0.02 0.03 0.04 0.05 0.05 0.04 0.03 0.03 0.02 0.03 0.03 0.05 0.06 0.07
0.02 0.02 0.02 0.02 0.01 0.01 0.01 0.01 0.01 0.01 0.01 0.01 0.01 0.01 0.01 0.02 0.02 0.02 0.02 0.01 0.01 0.01 0.00 0.00 0.01 0.01 0.02 0.02 0.02 0.03 0.03 0.03 0.03 0.04 0.04 0.04 0.04 0.03 0.02 0.03 0.04 0.06 0.06 0.07
0.02 0.03 0.03 0.03 0.02 0.01 0.00 0.01 0.01 0.01 0.01 0.01 0.00 0.01 0.02 0.02 0.03 0.02 0.02 0.01 0.01 0.01 0.01 0.00 0.01 0.02 0.04 0.03 0.03 0.03 0.03 0.03 0.03 0.04 0.05 0.05 0.04 0.03 0.03 0.03 0.04 0.06 0.07 0.07
0.02 0.01 0.02 0.02 0.01 0.01 0.01 0.02 0.01 0.01 0.01 0.01 0.01 0.01 0.03 0.05 0.04 0.03 0.03 0.02 0.01 0.01 0.01 0.01 0.01 0.03 0.04 0.04 0.03 0.03 0.03 0.04 0.04 0.04 0.04 0.04 0.05 0.04 0.04 0.04 0.04 0.04 0.06 0.06
0.02 0.02 0.02 0.02 0.02 0.03 0.05 0.06 0.03 0.01 0.03 0.02 0.01 0.01 0.03 0.09 0.08 0.04 0.03 0.02 0.01 0.01 0.01 0.01 0.02 0.02 0.03 0.03 0.04 0.04 0.04 0.05 0.05 0.04 0.03 0.04 0.04 0.05 0.05 0.04 0.03 0.04 0.05 0.06
0.02 0.03 0.05 0.05 0.04 0.05 0.03 0.03 0.02 0.02 0.02 0.02 0.01 0.02 0.04 0.07 0.07 0.04 0.03 0.02 0.02 0.02 0.02 0.02 0.03 0.03 0.04 0.04 0.04 0.04 0.06 0.06 0.07 0.06 0.05 0.05 0.05 0.05 0.06 0.05 0.04 0.05 0.04 0.06
MSLP
1004.40 1005.16 1005.77 1006.22 1006.52 1006.72 1006.83 1006.91 1006.97 1007.02 1007.05 1007.06 1007.05 1007.01 1006.97 1006.94 1006.95 1007.04 1007.22 1007.48 1007.82 1008.22 1008.65 1009.10 1009.53 1009.94 1010.34 1010.71 1011.08 1011.45 1011.82 1012.18 1012.54 1012.87 1013.17 1013.42 1013.63 1013.80 1013.95 1014.08 1014.21 1014.35 1014.52 1014.70
1004.82 1005.42 1005.87 1006.20 1006.42 1006.58 1006.72 1006.85 1006.98 1007.09 1007.16 1007.16 1007.10 1006.98 1006.82 1006.67 1006.58 1006.57 1006.69 1006.93 1007.28 1007.72 1008.20 1008.70 1009.17 1009.61 1010.02 1010.40 1010.77 1011.14 1011.51 1011.88 1012.24 1012.57 1012.85 1013.07 1013.22 1013.31 1013.36 1013.39 1013.43 1013.51 1013.64 1013.82
1005.02 1005.41 1005.68 1005.86 1006.00 1006.15 1006.32 1006.54 1006.78 1006.99 1007.14 1007.19 1007.13 1006.97 1006.73 1006.48 1006.28 1006.19 1006.23 1006.43 1006.77 1007.22 1007.72 1008.25 1008.75 1009.21 1009.63 1010.02 1010.39 1010.76 1011.15 1011.54 1011.93 1012.27 1012.55 1012.75 1012.85 1012.88 1012.85 1012.80 1012.76 1012.78 1012.87 1013.04
1005.00 1005.17 1005.26 1005.31 1005.39 1005.55 1005.80 1006.14 1006.52 1006.88 1007.16 1007.30 1007.28 1007.11 1006.83 1006.50 1006.21 1006.03 1006.00 1006.14 1006.44 1006.87 1007.37 1007.90 1008.40 1008.87 1009.28 1009.66 1010.04 1010.41 1010.81 1011.22 1011.62 1011.99 1012.28 1012.48 1012.57 1012.56 1012.48 1012.37 1012.28 1012.25 1012.30 1012.46
1004.81 1004.80 1004.74 1004.70 1004.76 1004.97 1005.32 1005.81 1006.36 1006.90 1007.32 1007.58 1007.63 1007.48 1007.17 1006.79 1006.43 1006.16 1006.05 1006.12 1006.38 1006.77 1007.25 1007.75 1008.24 1008.69 1009.08 1009.45 1009.80 1010.16 1010.56 1010.97 1011.38 1011.76 1012.07 1012.28 1012.38 1012.36 1012.26 1012.13 1012.00 1011.93 1011.95 1012.08
1004.52 1004.38 1004.23 1004.16 1004.25 1004.53 1005.02 1005.67 1006.40 1007.10 1007.68 1008.05 1008.17 1008.06 1007.75 1007.33 1006.90 1006.56 1006.38 1006.39 1006.58 1006.93 1007.37 1007.85 1008.31 1008.72 1009.09 1009.41 1009.73 1010.06 1010.43 1010.82 1011.23 1011.61 1011.93 1012.16 1012.27 1012.27 1012.17 1012.03 1011.90 1011.80 1011.79 1011.88
1004.21 1004.01 1003.84 1003.78 1003.93 1004.32 1004.93 1005.73 1006.62 1007.47 1008.17 1008.63 1008.82 1008.73 1008.42 1007.97 1007.50 1007.10 1006.86 1006.82 1006.96 1007.27 1007.68 1008.13 1008.57 1008.95 1009.28 1009.57 1009.84 1010.12 1010.44 1010.79 1011.17 1011.53 1011.85 1012.08 1012.21 1012.23 1012.16 1012.03 1011.89 1011.78 1011.74 1011.78
1003.96 1003.75 1003.61 1003.61 1003.84 1004.33 1005.05 1005.96 1006.94 1007.88 1008.66 1009.18 1009.40 1009.32 1009.00 1008.53 1008.03 1007.60 1007.33 1007.25 1007.37 1007.66 1008.06 1008.50 1008.92 1009.30 1009.60 1009.86 1010.08 1010.31 1010.57 1010.87 1011.19 1011.52 1011.82 1012.05 1012.19 1012.22 1012.17 1012.05 1011.92 1011.80 1011.73 1011.73
1003.79 1003.64 1003.56 1003.65 1003.95 1004.50 1005.28 1006.24 1007.25 1008.21 1008.99 1009.51 1009.72 1009.64 1009.31 1008.83 1008.32 1007.89 1007.61 1007.53 1007.66 1007.95 1008.37 1008.83 1009.27 1009.66 1009.97 1010.21 1010.41 1010.60 1010.80 1011.04 1011.30 1011.58 1011.84 1012.05 1012.18 1012.22 1012.18 1012.07 1011.94 1011.81 1011.71 1011.67
1003.73 1003.67 1003.68 1003.83 1004.19 1004.76 1005.54 1006.46 1007.41 1008.31 1009.02 1009.48 1009.66 1009.55 1009.21 1008.74 1008.25 1007.84 1007.59 1007.55 1007.72 1008.06 1008.53 1009.04 1009.53 1009.96 1010.31 1010.57 1010.77 1010.93 1011.09 1011.28 1011.48 1011.70 1011.91 1012.08 1012.19 1012.23 1012.19 1012.09 1011.95 1011.81 1011.69 1011.60
1003.80 1003.84 1003.93 1004.14 1004.50 1005.03 1005.73 1006.53 1007.36 1008.11 1008.70 1009.06 1009.16 1009.01 1008.68 1008.24 1007.80 1007.45 1007.27 1007.30 1007.54 1007.96 1008.50 1009.09 1009.66 1010.16 1010.57 1010.88 1011.10 1011.28 1011.42 1011.57 1011.73 1011.90 1012.05 1012.18 1012.26 1012.28 1012.23 1012.12 1011.98 1011.82 1011.67 1011.55
1003.97 1004.12 1004.28 1004.51 1004.84 1005.29 1005.85 1006.47 1007.10 1007.66 1008.08 1008.31 1008.32 1008.15 1007.83 1007.45 1007.09 1006.84 1006.76 1006.89 1007.22 1007.73 1008.35 1009.03 1009.68 1010.27 1010.75 1011.13 1011.41 1011.61 1011.76 1011.90 1012.02 1012.15 1012.26 1012.35 1012.39 1012.39 1012.32 1012.20 1012.05 1011.88 1011.71 1011.57
1004.27 1004.50 1004.72 1004.95 1005.21 1005.54 1005.91 1006.32 1006.72 1007.06 1007.29 1007.38 1007.33 1007.14 1006.86 1006.56 1006.31 1006.19 1006.23 1006.47 1006.90 1007.49 1008.19 1008.94 1009.66 1010.32 1010.88 1011.32 1011.66 1011.91 1012.09 1012.22 1012.34 1012.44 1012.52 1012.57 1012.59 1012.55 1012.47 1012.34 1012.18 1012.00 1011.82 1011.66
1004.67 1004.98 1005.23 1005.44 1005.63 1005.81 1005.99 1006.18 1006.34 1006.46 1006.51 1006.48 1006.36 1006.18 1005.97 1005.78 1005.67 1005.68 1005.85 1006.20 1006.72 1007.38 1008.12 1008.91 1009.67 1010.37 1010.98 1011.47 1011.86 1012.15 1012.36 1012.51 1012.63 1012.72 1012.78 1012.80 1012.80 1012.75 1012.65 1012.52 1012.36 1012.17 1011.99 1011.82
1005.15 1005.53 1005.80 1005.98 1006.09 1006.14 1006.14 1006.11 1006.06 1005.98 1005.88 1005.75 1005.61 1005.46 1005.34 1005.27 1005.30 1005.45 1005.75 1006.19 1006.76 1007.45 1008.20 1008.98 1009.74 1010.44 1011.05 1011.57 1011.98 1012.29 1012.53 1012.71 1012.83 1012.92 1012.97 1012.99 1012.97 1012.91 1012.81 1012.68 1012.51 1012.34 1012.16 1011.99
1005.69 1006.10 1006.39 1006.55 1006.58 1006.51 1006.36 1006.16 1005.93 1005.70 1005.48 1005.29 1005.14 1005.04 1005.02 1005.08 1005.25 1005.53 1005.93 1006.43 1007.03 1007.71 1008.43 1009.15 1009.86 1010.51 1011.09 1011.58 1011.99 1012.32 1012.57 1012.76 1012.90 1012.99 1013.04 1013.05 1013.03 1012.97 1012.87 1012.74 1012.59 1012.42 1012.25 1012.09
1006.22 1006.65 1006.94 1007.07 1007.05 1006.90 1006.63 1006.30 1005.94 1005.59 1005.30 1005.07 1004.94 1004.91 1004.98 1005.17 1005.46 1005.84 1006.31 1006.86 1007.45 1008.09 1008.73 1009.37 1009.97 1010.54 1011.05 1011.50 1011.88 1012.20 1012.45 1012.65 1012.79 1012.89 1012.95 1012.97 1012.94 1012.88 1012.79 1012.67 1012.53 1012.37 1012.21 1012.05
1006.67 1007.09 1007.37 1007.49 1007.43 1007.21 1006.88 1006.46 1006.02 1005.61 1005.27 1005.03 1004.93 1004.96 1005.12 1005.41 1005.79 1006.26 1006.78 1007.33 1007.89 1008.45 1009.00 1009.53 1010.02 1010.48 1010.91 1011.29 1011.63 1011.92 1012.17 1012.37 1012.53 1012.64 1012.70 1012.72 1012.70 1012.64 1012.55 1012.44 1012.31 1012.16 1012.01 1011.86
1006.98 1007.37 1007.62 1007.71 1007.63 1007.38 1007.01 1006.55 1006.07 1005.63 1005.27 1005.05 1004.97 1005.06 1005.29 1005.65 1006.10 1006.61 1007.15 1007.69 1008.21 1008.70 1009.15 1009.57 1009.95 1010.31 1010.65 1010.97 1011.27 1011.54 1011.78 1011.99 1012.15 1012.27 1012.34 1012.36 1012.34 1012.28 1012.19 1012.08 1011.96 1011.82 1011.68 1011.54
1007.11 1007.44 1007.65 1007.72 1007.61 1007.36 1006.97 1006.51 1006.02 1005.58 1005.23 1005.02 1004.98 1005.10 1005.37 1005.78 1006.27 1006.80 1007.34 1007.86 1008.33 1008.75 1009.13 1009.45 1009.75 1010.03 1010.31 1010.58 1010.85 1011.11 1011.36 1011.57 1011.75 1011.87 1011.95 1011.97 1011.95 1011.88 1011.79 1011.67 1011.54 1011.41 1011.28 1011.16
1007.07 1007.31 1007.47 1007.50 1007.39 1007.14 1006.77 1006.32 1005.86 1005.43 1005.11 1004.92 1004.90 1005.04 1005.34 1005.76 1006.26 1006.79 1007.32 1007.82 1008.25 1008.62 1008.94 1009.21 1009.45 1009.69 1009.93 1010.18 1010.45 1010.71 1010.97 1011.20 1011.38 1011.52 1011.60 1011.62 1011.58 1011.50 1011.40 1011.27 1011.14 1011.01 1010.89 1010.78
1006.87 1007.03 1007.13 1007.13 1007.01 1006.78 1006.44 1006.03 1005.61 1005.23 1004.94 1004.78 1004.77 1004.92 1005.22 1005.64 1006.13 1006.65 1007.15 1007.62 1008.03 1008.38 1008.66 1008.90 1009.13 1009.35 1009.59 1009.84 1010.12 1010.40 1010.67 1010.92 1011.11 1011.26 1011.33 1011.34 1011.29 1011.19 1011.07 1010.93 1010.79 1010.67 1010.56 1010.48
1006.58 1006.66 1006.70 1006.68 1006.57 1006.36 1006.07 1005.72 1005.36 1005.04 1004.79 1004.65 1004.66 1004.81 1005.10 1005.49 1005.95 1006.45 1006.93 1007.38 1007.77 1008.10 1008.38 1008.62 1008.85 1009.08 1009.33 1009.60 1009.90 1010.19 1010.48 1010.73 1010.94 1011.08 1011.14 1011.13 1011.06 1010.94 1010.80 1010.64 1010.50 1010.38 1010.29 1010.25
1006.26 1006.27 1006.27 1006.24 1006.14 1005.98 1005.75 1005.48 1005.19 1004.92 1004.72 1004.62 1004.64 1004.78 1005.04 1005.41 1005.84 1006.29 1006.75 1007.17 1007.55 1007.88 1008.16 1008.42 1008.66 1008.92 1009.18 1009.47 1009.78 1010.08 1010.37 1010.62 1010.81 1010.93 1010.98 1010.94 1010.85 1010.71 1010.54 1010.37 1010.23 1010.12 1010.06 1010.05
1005.95 1005.92 1005.90 1005.87 1005.81 1005.70 1005.54 1005.34 1005.12 1004.92 1004.77 1004.70 1004.73 1004.86 1005.10 1005.43 1005.82 1006.24 1006.66 1007.07 1007.44 1007.77 1008.06 1008.33 1008.59 1008.85 1009.13 1009.42 1009.72 1010.01 1010.28 1010.50 1010.67 1010.76 1010.77 1010.70 1010.58 1010.41 1010.23 1010.06 1009.92 1009.82 1009.80 1009.83
1005.67 1005.62 1005.61 1005.60 1005.58 1005.52 1005.43 1005.30 1005.16 1005.02 1004.91 1004.86 1004.90 1005.02 1005.23 1005.53 1005.88 1006.27 1006.67 1007.06 1007.42 1007.75 1008.05 1008.33 1008.59 1008.85 1009.12 1009.39 1009.66 1009.92 1010.14 1010.32 1010.44 1010.48 1010.45 1010.35 1010.20 1010.01 1009.82 1009.64 1009.51 1009.44 1009.44 1009.51
Thickness
5852 5840 5835 5846 5859 5860 5856 5850 5847 5862 5883 5875 5866 5863 5865 5868 5864 5857 5852 5849 5845 5843 5843 5841 5837 5833 5827 5821 5816 5812 5809 5806 5804 5800 5797 5794 5792 5793 5792 5792 5790 5788 5787 5786
5838 5834 5852 5862 5866 5863 5855 5847 5850 5862 5878 5873 5866 5864 5874 5873 5869 5864 5859 5854 5850 5846 5842 5839 5836 5833 5827 5822 5818 5814 5811 5808 5805 5803 5800 5798 5797 5796 5795 5794 5791 5789 5788 5786
5831 5848 5864 5859 5854 5850 5850 5848 5850 5853 5864 5871 5860 5850 5860 5870 5875 5872 5868 5864 5858 5851 5844 5839 5836 5834 5831 5825 5821 5817 5813 5810 5807 5805 5802 5800 5798 5796 5794 5792 5790 5790 5789 5787
5843 5859 5860 5853 5851 5850 5840 5859 5860 5858 5849 5844 5851 5823 5842 5857 5860 5864 5865 5864 5860 5857 5851 5845 5840 5835 5832 5830 5826 5821 5817 5813 5810 5807 5803 5799 5794 5791 5793 5793 5792 5791 5790 5788
5841 5853 5851 5845 5853 5857 5853 5868 5862 5857 5847 5840 5845 5829 5831 5849 5842 5851 5861 5865 5863 5860 5855 5849 5844 5840 5837 5834 5829 5824 5818 5814 5811 5808 5805 5800 5797 5796 5796 5795 5793 5791 5791 5789
5848 5864 5861 5857 5865 5865 5863 5858 5854 5852 5841 5815 5832 5828 5821 5837 5841 5844 5852 5860 5864 5862 5858 5853 5849 5843 5839 5836 5831 5825 5819 5814 5812 5809 5806 5802 5798 5796 5794 5793 5791 5789 5790 5789
5830 5847 5861 5864 5848 5856 5854 5834 5814 5809 5807 5808 5838 5832 5825 5845 5858 5855 5852 5858 5864 5863 5858 5852 5846 5841 5837 5834 5830 5826 5819 5813 5812 5809 5806 5803 5800 5797 5795 5793 5791 5790 5789 5789
5814 5820 5846 5854 5845 5837 5842 5836 5807 5792 5798 5811 5830 5823 5835 5862 5868 5866 5862 5862 5862 5861 5859 5853 5848 5843 5838 5834 5831 5825 5819 5814 5812 5808 5805 5804 5802 5799 5797 5795 5793 5791 5791 5791
5813 5818 5850 5856 5857 5846 5831 5832 5844 5827 5818 5803 5813 5825 5839 5855 5858 5860 5859 5857 5855 5857 5856 5852 5849 5844 5840 5835 5831 5827 5820 5814 5812 5809 5806 5803 5801 5799 5797 5796 5794 5793 5792 5792
5819 5807 5833 5849 5850 5848 5843 5839 5830 5817 5796 5787 5800 5808 5813 5830 5838 5849 5852 5851 5850 5853 5852 5850 5846 5843 5840 5836 5832 5828 5822 5816 5812 5809 5806 5803 5800 5799 5797 5795 5792 5791 5791 5790
5818 5800 5814 5829 5823 5821 5828 5826 5823 5818 5814 5792 5784 5795 5830 5829 5836 5837 5839 5844 5844 5844 5845 5844 5841 5839 5838 5835 5831 5825 5820 5815 5811 5808 5804 5802 5799 5797 5795 5792 5791 5789 5788 5787
5810 5801 5794 5812 5837 5842 5831 5826 5821 5801 5797 5803 5792 5796 5838 5839 5842 5839 5834 5836 5838 5838 5838 5837 5835 5832 5830 5828 5826 5822 5819 5814 5810 5806 5803 5799 5797 5795 5792 5789 5788 5787 5784 5784
5793 5784 5772 5784 5805 5821 5816 5821 5823 5819 5809 5799 5790 5794 5834 5832 5835 5836 5833 5830 5828 5829 5828 5827 5824 5821 5820 5820 5818 5816 5814 5811 5808 5804 5799 5796 5793 5791 5789 5787 5785 5783 5781 5779
5785 5775 5770 5764 5778 5797 5798 5805 5814 5809 5797 5794 5796 5798 5814 5819 5820 5822 5821 5819 5819 5817 5816 5815 5812 5810 5811 5810 5810 5808 5806 5805 5804 5800 5796 5792 5789 5787 5785 5783 5781 5779 5777 5774
5778 5765 5772 5782 5792 5795 5795 5798 5803 5799 5800 5793 5798 5800 5804 5809 5811 5812 5811 5809 5806 5804 5804 5802 5800 5799 5800 5800 5800 5800 5798 5798 5797 5793 5789 5787 5786 5783 5781 5778 5776 5774 5772 5770
5767 5756 5758 5763 5781 5787 5784 5793 5795 5795 5798 5796 5797 5794 5807 5806 5806 5804 5802 5799 5794 5792 5792 5791 5790 5789 5788 5789 5789 5790 5789 5789 5788 5785 5782 5781 5779 5776 5774 5772 5770 5768 5767 5765
5752 5745 5739 5744 5766 5770 5762 5780 5784 5786 5793 5791 5782 5785 5794 5789 5788 5789 5791 5790 5786 5783 5781 5780 5780 5779 5779 5780 5781 5778 5779 5779 5777 5775 5775 5773 5771 5768 5767 5766 5763 5760 5759 5757
5739 5733 5731 5734 5741 5727 5761 5791 5789 5781 5784 5789 5786 5784 5784 5782 5784 5785 5785 5780 5777 5775 5772 5771 5771 5771 5771 5772 5772 5772 5770 5768 5767 5766 5765 5765 5763 5761 5759 5757 5755 5753 5752 5749
5746 5730 5721 5723 5725 5736 5758 5773 5774 5765 5762 5774 5771 5772 5773 5776 5773 5770 5774 5773 5770 5768 5765 5763 5763 5763 5763 5762 5761 5761 5757 5757 5755 5755 5756 5755 5754 5752 5751 5748 5747 5746 5743 5741
5737 5730 5715 5715 5711 5716 5741 5763 5773 5763 5742 5758 5759 5756 5758 5757 5745 5746 5758 5760 5760 5758 5755 5754 5755 5754 5752 5751 5751 5747 5745 5745 5744 5746 5747 5747 5746 5744 5742 5741 5740 5739 5736 5734
5712 5710 5706 5707 5706 5722 5744 5755 5755 5727 5723 5743 5746 5744 5741 5738 5737 5742 5747 5747 5746 5746 5745 5745 5744 5742 5741 5741 5739 5735 5734 5734 5737 5738 5737 5737 5736 5735 5734 5733 5731 5730 5728 5725
5705 5702 5699 5700 5697 5704 5732 5736 5724 5719 5732 5734 5733 5734 5730 5730 5732 5733 5734 5733 5733 5733 5733 5734 5732 5731 5731 5730 5727 5723 5722 5725 5726 5727 5726 5725 5725 5725 5725 5722 5721 5720 5718 5716
5705 5704 5702 5698 5699 5708 5719 5718 5720 5725 5722 5723 5724 5725 5723 5721 5720 5721 5721 5721 5721 5721 5722 5722 5720 5718 5718 5718 5716 5711 5712 5714 5714 5714 5714 5713 5713 5713 5712 5711 5710 5708 5707 5705
5700 5704 5697 5692 5697 5703 5706 5708 5709 5712 5711 5714 5715 5715 5714 5711 5710 5710 5710 5710 5710 5710 5710 5710 5708 5706 5705 5705 5704 5702 5702 5703 5702 5701 5701 5701 5701 5700 5699 5699 5699 5697 5696 5694
5680 5684 5683 5680 5687 5689 5693 5694 5696 5700 5702 5703 5704 5705 5703 5701 5700 5699 5698 5698 5699 5699 5698 5697 5695 5693 5693 5694 5692 5691 5691 5691 5689 5689 5689 5690 5690 5689 5687 5686 5685 5685 5683 5683
5679 5676 5670 5669 5678 5677 5678 5684 5687 5687 5687 5689 5690 5691 5691 5690 5688 5687 5687 5687 5687 5686 5686 5684 5682 5682 5681 5681 5680 5680 5680 5679 5677 5677 5677 5678 5678 5678 5677 5675 5672 5671 5670 5670